User: anonymous   Login
Location: Unspecified
(0.0000°N, 0.0000°E)
Time: 19:08:28
(UTC+00:00)
Language:

STARLINK-32403 - Orbit

View from above orbital plane
View from above orbital plane
View from above satellite
View from above satellite

Ground track
Ground track

The orbit is defined by the following mean orbital elements,

1 61629U          26144.84506838 +.00000000 +00000-0 +93914-5 0 00007
2 61629  43.0017  84.3953 0001391 281.4628  78.6068 15.27574955    03
Epoch (UTC): 24 May 2026 20:16:53
Eccentricity: 0.0001391
inclination: 43.0017°
perigee height: 482 km
apogee height: 484 km
right ascension of ascending node: 84.3953°
argument of perigee: 281.4628°
revolutions per day: 15.27574955
mean anomaly at epoch: 78.6068°

The dashed part of the orbit path shows where the satellite is in the earth's shadow,  

DLR